This is the latest recevied weather packets stored in our database for station/object OE3TEC-15. If no packets are shown the sender has not sent any weather packets the latest 10 day(s).
| Time | Temp. | Humidity | Pressure | Rain* | Wind** | Luminosity | Snow |
|---|---|---|---|---|---|---|---|
| 1777905448 | 26.67° C | 28% | 1013 hPa | 0 mm | - | 298 W/m² | - |
| 1777904841 | 26.67° C | 26% | 1012.8 hPa | 0 mm | - | 318 W/m² | - |
| 1777904235 | 26.67° C | 27% | 1013 hPa | 0 mm | - | 363 W/m² | - |
| 1777903627 | 26.67° C | 28% | 1013.1 hPa | 0 mm | - | 403 W/m² | - |
| 1777903020 | 27.22° C | 29% | 1013.4 hPa | 0 mm | - | 391 W/m² | - |
| 1777902413 | 26.67° C | 30% | 1013.3 hPa | 0 mm | - | 439 W/m² | - |
| 1777901805 | 26.67° C | 29% | 1013.6 hPa | 0 mm | - | 501 W/m² | - |
| 1777901198 | 26.67° C | 31% | 1013.6 hPa | 0 mm | - | 550 W/m² | - |
| 1777900591 | 26.11° C | 32% | 1013.9 hPa | 0 mm | - | 587 W/m² | - |
| 1777899983 | 26.11° C | 34% | 1013.9 hPa | 0 mm | - | 385 W/m² | - |
| 1777899376 | 25.56° C | 37% | 1014.1 hPa | 0 mm | - | 493 W/m² | - |
| 1777898768 | 25.56° C | 35% | 1014.1 hPa | 0 mm | - | 353 W/m² | - |
| 1777898161 | 26.11° C | 35% | 1014.3 hPa | 0 mm | - | 354 W/m² | - |
| 1777897556 | 26.67° C | 35% | 1014.2 hPa | 0 mm | - | 512 W/m² | - |
| 1777896947 | 26.67° C | 34% | 1014.5 hPa | 0 mm | - | 504 W/m² | - |
| 1777896340 | 26.11° C | 36% | 1014.4 hPa | 0 mm | - | 610 W/m² | - |
| 1777895733 | 25.56° C | 37% | 1014.5 hPa | 0 mm | - | 593 W/m² | - |
| 1777895125 | 25.56° C | 36% | 1014.6 hPa | 0 mm | - | 491 W/m² | - |
| 1777894519 | 25.56° C | 36% | 1014.7 hPa | 0 mm | - | 570 W/m² | - |
| 1777893912 | 25.56° C | 38% | 1014.9 hPa | 0 mm | - | 650 W/m² | - |
| 1777893303 | 25° C | 38% | 1014.9 hPa | 0 mm | - | 576 W/m² | - |
| 1777892696 | 25.56° C | 38% | 1015.2 hPa | 0 mm | - | 506 W/m² | - |
| 1777892088 | 25° C | 39% | 1015.3 hPa | 0 mm | - | 541 W/m² | - |
| 1777891482 | 25° C | 40% | 1015.3 hPa | 0 mm | - | 595 W/m² | - |
| 1777890876 | 25° C | 41% | 1015.5 hPa | 0 mm | - | 693 W/m² | - |
* Rain latest hour (hover to see other rain measurements)
** Current wind speed in m/s (hover to see current wind gust speed)